QPF
0.03 0.05 0.05 0.04 0.02 0.01 0.00 0.00 0.00 0.00 0.00 0.00 0.00 0.00 0.00 0.00 0.00 0.00 0.00 0.00 0.00 0.00 0.00 0.00 0.01 0.01 0.01 0.01 0.00 0.01 0.01 0.01 0.01 0.01 0.01 0.01 0.01 0.01 0.02 0.02 0.01 0.01 0.02 0.02 0.03 0.03 0.03 0.01 0.01
0.03 0.06 0.06 0.04 0.01 0.00 0.00 0.00 0.00 0.00 0.01 0.00 0.00 0.00 0.00 0.00 0.00 0.00 0.00 0.00 0.00 0.01 0.00 0.00 0.01 0.01 0.01 0.00 0.00 0.01 0.01 0.02 0.02 0.02 0.01 0.01 0.02 0.02 0.01 0.01 0.01 0.01 0.01 0.02 0.03 0.03 0.04 0.02 0.01
0.05 0.06 0.06 0.04 0.01 0.00 0.00 0.00 0.00 0.01 0.01 0.00 0.00 0.00 0.00 0.00 0.00 0.00 0.01 0.00 0.01 0.01 0.01 0.01 0.01 0.01 0.01 0.01 0.00 0.00 0.01 0.02 0.02 0.02 0.02 0.02 0.02 0.02 0.02 0.01 0.01 0.01 0.01 0.01 0.02 0.03 0.03 0.03 0.03
0.06 0.08 0.07 0.04 0.01 0.00 0.00 0.00 0.00 0.01 0.01 0.00 0.00 0.00 0.01 0.00 0.00 0.00 0.01 0.01 0.01 0.01 0.01 0.02 0.02 0.03 0.03 0.02 0.01 0.00 0.01 0.02 0.03 0.03 0.03 0.02 0.02 0.02 0.02 0.02 0.02 0.01 0.01 0.01 0.02 0.03 0.03 0.03 0.03
0.08 0.09 0.08 0.04 0.01 0.00 0.00 0.00 0.00 0.00 0.01 0.00 0.00 0.00 0.01 0.00 0.00 0.01 0.02 0.02 0.01 0.01 0.03 0.05 0.05 0.05 0.04 0.03 0.02 0.01 0.01 0.02 0.03 0.03 0.03 0.03 0.03 0.02 0.02 0.02 0.02 0.02 0.01 0.01 0.02 0.03 0.03 0.04 0.04
0.10 0.10 0.06 0.03 0.01 0.00 0.00 0.00 0.01 0.01 0.01 0.01 0.00 0.01 0.01 0.01 0.01 0.02 0.03 0.03 0.01 0.01 0.02 0.05 0.08 0.07 0.06 0.06 0.04 0.03 0.03 0.02 0.03 0.03 0.04 0.04 0.03 0.01 0.02 0.03 0.03 0.02 0.02 0.01 0.02 0.02 0.04 0.04 0.04
0.12 0.10 0.04 0.02 0.01 0.00 0.00 0.00 0.00 0.00 0.01 0.01 0.00 0.00 0.01 0.01 0.02 0.03 0.03 0.03 0.02 0.01 0.02 0.05 0.06 0.07 0.08 0.08 0.08 0.07 0.05 0.04 0.03 0.03 0.03 0.04 0.03 0.02 0.02 0.03 0.05 0.03 0.02 0.02 0.02 0.02 0.04 0.05 0.05
0.13 0.11 0.05 0.02 0.01 0.00 0.00 0.00 0.00 0.01 0.01 0.01 0.01 0.00 0.00 0.00 0.01 0.03 0.04 0.06 0.05 0.04 0.03 0.04 0.06 0.07 0.08 0.10 0.10 0.09 0.08 0.06 0.05 0.05 0.04 0.03 0.04 0.02 0.02 0.02 0.02 0.03 0.03 0.02 0.02 0.02 0.04 0.07 0.06
0.13 0.12 0.06 0.02 0.01 0.00 0.00 0.00 0.00 0.01 0.01 0.01 0.01 0.01 0.00 0.00 0.01 0.02 0.03 0.08 0.08 0.07 0.06 0.06 0.06 0.06 0.07 0.10 0.11 0.10 0.08 0.07 0.06 0.05 0.05 0.03 0.03 0.03 0.02 0.02 0.01 0.02 0.02 0.03 0.03 0.02 0.03 0.06 0.08
0.13 0.11 0.06 0.02 0.01 0.01 0.01 0.00 0.00 0.01 0.02 0.02 0.02 0.02 0.01 0.01 0.01 0.01 0.02 0.07 0.11 0.08 0.07 0.06 0.08 0.08 0.09 0.10 0.11 0.12 0.10 0.07 0.06 0.05 0.05 0.05 0.04 0.03 0.02 0.02 0.02 0.01 0.02 0.02 0.03 0.03 0.03 0.05 0.06
0.11 0.10 0.06 0.02 0.01 0.01 0.01 0.01 0.01 0.01 0.02 0.01 0.01 0.02 0.01 0.02 0.03 0.03 0.03 0.06 0.12 0.12 0.10 0.08 0.09 0.11 0.12 0.12 0.13 0.13 0.11 0.07 0.06 0.05 0.05 0.06 0.05 0.04 0.03 0.02 0.02 0.02 0.02 0.03 0.02 0.02 0.02 0.03 0.04
0.08 0.07 0.06 0.03 0.01 0.02 0.02 0.01 0.01 0.01 0.01 0.01 0.01 0.01 0.01 0.02 0.02 0.03 0.03 0.04 0.09 0.11 0.11 0.11 0.12 0.15 0.16 0.17 0.17 0.16 0.15 0.11 0.08 0.07 0.06 0.07 0.08 0.07 0.04 0.02 0.01 0.01 0.01 0.02 0.02 0.02 0.02 0.02 0.03
0.05 0.06 0.06 0.04 0.02 0.02 0.02 0.02 0.01 0.01 0.01 0.02 0.02 0.02 0.02 0.01 0.02 0.04 0.04 0.03 0.06 0.09 0.09 0.12 0.13 0.17 0.18 0.19 0.21 0.18 0.16 0.13 0.11 0.10 0.10 0.10 0.09 0.07 0.05 0.03 0.01 0.01 0.02 0.03 0.03 0.02 0.02 0.02 0.03
0.03 0.04 0.04 0.04 0.03 0.03 0.02 0.02 0.02 0.01 0.01 0.03 0.02 0.02 0.03 0.01 0.02 0.04 0.05 0.05 0.04 0.06 0.08 0.10 0.12 0.14 0.18 0.21 0.22 0.21 0.18 0.13 0.11 0.10 0.11 0.13 0.13 0.11 0.07 0.03 0.02 0.01 0.02 0.03 0.03 0.03 0.02 0.02 0.02
0.02 0.03 0.03 0.04 0.04 0.05 0.04 0.02 0.02 0.01 0.02 0.03 0.03 0.02 0.03 0.02 0.02 0.03 0.04 0.05 0.05 0.05 0.07 0.10 0.11 0.12 0.15 0.20 0.21 0.20 0.20 0.15 0.11 0.09 0.08 0.11 0.12 0.14 0.13 0.09 0.05 0.03 0.03 0.04 0.04 0.03 0.03 0.03 0.02
0.01 0.03 0.03 0.04 0.05 0.06 0.06 0.03 0.01 0.01 0.02 0.04 0.07 0.04 0.03 0.02 0.02 0.02 0.03 0.04 0.06 0.07 0.06 0.08 0.10 0.11 0.13 0.17 0.23 0.19 0.19 0.18 0.14 0.09 0.07 0.06 0.07 0.10 0.15 0.14 0.10 0.06 0.05 0.06 0.06 0.05 0.05 0.05 0.04
0.02 0.03 0.03 0.03 0.04 0.07 0.07 0.04 0.02 0.01 0.02 0.05 0.10 0.07 0.03 0.03 0.02 0.03 0.02 0.03 0.05 0.07 0.08 0.07 0.09 0.10 0.11 0.14 0.25 0.22 0.17 0.16 0.16 0.13 0.10 0.07 0.05 0.06 0.12 0.18 0.13 0.09 0.07 0.06 0.07 0.07 0.06 0.07 0.06
0.01 0.02 0.02 0.02 0.03 0.05 0.06 0.03 0.02 0.01 0.02 0.05 0.11 0.11 0.05 0.03 0.03 0.03 0.03 0.03 0.05 0.07 0.11 0.10 0.08 0.08 0.09 0.11 0.18 0.30 0.21 0.14 0.12 0.12 0.10 0.08 0.06 0.06 0.06 0.12 0.17 0.12 0.08 0.06 0.06 0.09 0.09 0.07 0.07
0.01 0.01 0.02 0.02 0.02 0.04 0.04 0.03 0.02 0.02 0.02 0.05 0.11 0.13 0.08 0.04 0.03 0.03 0.03 0.03 0.04 0.06 0.09 0.14 0.08 0.05 0.07 0.08 0.11 0.25 0.28 0.14 0.10 0.10 0.09 0.07 0.06 0.06 0.05 0.06 0.10 0.13 0.13 0.09 0.07 0.07 0.09 0.08 0.07
0.02 0.02 0.02 0.01 0.02 0.03 0.04 0.04 0.03 0.03 0.03 0.04 0.09 0.13 0.10 0.06 0.04 0.04 0.04 0.04 0.05 0.05 0.06 0.13 0.11 0.05 0.05 0.06 0.08 0.16 0.27 0.18 0.09 0.08 0.08 0.06 0.05 0.04 0.04 0.04 0.05 0.09 0.13 0.12 0.09 0.08 0.09 0.08 0.06
0.02 0.03 0.02 0.02 0.02 0.03 0.04 0.04 0.04 0.03 0.03 0.05 0.09 0.15 0.14 0.09 0.06 0.04 0.03 0.03 0.05 0.06 0.06 0.08 0.12 0.08 0.05 0.05 0.07 0.10 0.18 0.18 0.11 0.07 0.08 0.06 0.05 0.04 0.03 0.03 0.04 0.06 0.08 0.10 0.12 0.11 0.10 0.10 0.07
0.01 0.02 0.02 0.02 0.03 0.04 0.04 0.04 0.04 0.03 0.04 0.06 0.10 0.15 0.17 0.11 0.06 0.04 0.03 0.03 0.04 0.06 0.07 0.07 0.09 0.10 0.07 0.05 0.07 0.07 0.10 0.13 0.10 0.08 0.07 0.06 0.05 0.04 0.03 0.03 0.03 0.04 0.05 0.06 0.09 0.12 0.11 0.11 0.10
0.01 0.01 0.02 0.02 0.04 0.04 0.03 0.04 0.03 0.03 0.06 0.07 0.09 0.12 0.16 0.14 0.07 0.04 0.03 0.04 0.06 0.08 0.08 0.07 0.07 0.08 0.09 0.07 0.06 0.07 0.07 0.09 0.09 0.08 0.08 0.06 0.04 0.03 0.03 0.02 0.02 0.03 0.05 0.04 0.04 0.07 0.09 0.10 0.10
0.01 0.01 0.02 0.02 0.04 0.05 0.03 0.03 0.03 0.04 0.06 0.06 0.06 0.08 0.14 0.18 0.09 0.04 0.04 0.04 0.05 0.07 0.09 0.09 0.07 0.06 0.07 0.08 0.07 0.08 0.08 0.08 0.08 0.07 0.08 0.08 0.06 0.04 0.03 0.02 0.01 0.02 0.04 0.04 0.03 0.05 0.06 0.08 0.11
0.01 0.02 0.03 0.04 0.04 0.03 0.02 0.03 0.05 0.05 0.05 0.06 0.07 0.08 0.12 0.17 0.09 0.05 0.04 0.05 0.04 0.05 0.08 0.09 0.10 0.07 0.07 0.08 0.09 0.09 0.09 0.09 0.09 0.08 0.07 0.07 0.07 0.05 0.04 0.03 0.02 0.02 0.03 0.04 0.03 0.04 0.06 0.06 0.09
0.01 0.02 0.04 0.04 0.03 0.02 0.02 0.03 0.05 0.04 0.03 0.03 0.05 0.08 0.12 0.16 0.11 0.05 0.04 0.05 0.04 0.05 0.09 0.11 0.10 0.09 0.07 0.07 0.08 0.08 0.09 0.10 0.10 0.10 0.07 0.06 0.06 0.05 0.05 0.05 0.04 0.03 0.04 0.05 0.05 0.04 0.06 0.07 0.07
0.01 0.01 0.03 0.04 0.03 0.03 0.03 0.04 0.04 0.02 0.01 0.02 0.04 0.08 0.11 0.15 0.13 0.08 0.05 0.06 0.05 0.06 0.09 0.11 0.11 0.09 0.07 0.07 0.07 0.07 0.08 0.09 0.09 0.11 0.11 0.08 0.06 0.05 0.05 0.05 0.04 0.04 0.04 0.04 0.05 0.04 0.05 0.07 0.06
0.01 0.01 0.02 0.03 0.03 0.02 0.03 0.05 0.07 0.04 0.03 0.03 0.03 0.06 0.09 0.13 0.15 0.10 0.06 0.06 0.07 0.06 0.07 0.08 0.09 0.11 0.09 0.07 0.06 0.06 0.07 0.08 0.09 0.09 0.11 0.10 0.07 0.06 0.05 0.04 0.04 0.04 0.04 0.05 0.05 0.05 0.04 0.06 0.05
0.01 0.01 0.02 0.03 0.03 0.04 0.04 0.06 0.07 0.05 0.04 0.04 0.04 0.07 0.10 0.12 0.13 0.09 0.05 0.04 0.05 0.05 0.07 0.07 0.06 0.08 0.10 0.09 0.08 0.06 0.06 0.06 0.08 0.09 0.08 0.08 0.08 0.06 0.05 0.04 0.04 0.04 0.04 0.05 0.05 0.04 0.03 0.04 0.05
0.01 0.01 0.02 0.03 0.03 0.04 0.05 0.06 0.05 0.04 0.04 0.04 0.04 0.06 0.09 0.10 0.10 0.08 0.07 0.05 0.04 0.04 0.05 0.05 0.05 0.05 0.07 0.08 0.09 0.08 0.07 0.07 0.07 0.08 0.08 0.06 0.06 0.07 0.06 0.05 0.04 0.04 0.04 0.06 0.05 0.04 0.03 0.04 0.04
MSLP
1014.97 1015.47 1016.20 1017.06 1017.92 1018.64 1019.14 1019.36 1019.31 1019.04 1018.67 1018.30 1018.02 1017.89 1017.93 1018.09 1018.33 1018.55 1018.70 1018.76 1018.72 1018.63 1018.53 1018.47 1018.49 1018.58 1018.71 1018.86 1018.96 1019.00 1018.95 1018.84 1018.71 1018.58 1018.51 1018.51 1018.57 1018.66 1018.77 1018.84 1018.86 1018.83 1018.76 1018.68 1018.62 1018.58 1018.57 1018.59 1018.59
1015.44 1016.10 1016.95 1017.84 1018.66 1019.28 1019.62 1019.65 1019.41 1018.97 1018.46 1018.01 1017.70 1017.57 1017.64 1017.84 1018.12 1018.38 1018.55 1018.63 1018.60 1018.51 1018.42 1018.36 1018.38 1018.47 1018.62 1018.78 1018.90 1018.97 1018.96 1018.89 1018.79 1018.71 1018.66 1018.67 1018.73 1018.82 1018.91 1018.96 1018.98 1018.95 1018.89 1018.82 1018.78 1018.76 1018.76 1018.78 1018.80
1016.07 1016.85 1017.75 1018.62 1019.34 1019.81 1019.95 1019.78 1019.36 1018.78 1018.18 1017.68 1017.37 1017.27 1017.38 1017.63 1017.95 1018.24 1018.45 1018.53 1018.52 1018.44 1018.35 1018.31 1018.33 1018.43 1018.59 1018.75 1018.89 1018.98 1018.99 1018.95 1018.88 1018.81 1018.78 1018.78 1018.83 1018.89 1018.95 1018.99 1019.00 1018.97 1018.93 1018.90 1018.89 1018.90 1018.94 1018.98 1019.01
1016.84 1017.69 1018.57 1019.36 1019.93 1020.21 1020.14 1019.78 1019.19 1018.51 1017.85 1017.34 1017.05 1017.00 1017.16 1017.46 1017.81 1018.13 1018.35 1018.45 1018.45 1018.39 1018.32 1018.30 1018.34 1018.45 1018.60 1018.77 1018.92 1019.01 1019.03 1019.00 1018.95 1018.89 1018.85 1018.85 1018.87 1018.91 1018.95 1018.97 1018.98 1018.96 1018.95 1018.96 1018.99 1019.04 1019.12 1019.20 1019.25
1017.68 1018.54 1019.36 1020.01 1020.40 1020.46 1020.20 1019.66 1018.95 1018.19 1017.51 1017.02 1016.78 1016.78 1016.98 1017.31 1017.68 1018.01 1018.24 1018.35 1018.37 1018.34 1018.30 1018.30 1018.36 1018.49 1018.65 1018.81 1018.95 1019.03 1019.06 1019.03 1018.98 1018.93 1018.90 1018.89 1018.90 1018.93 1018.96 1018.97 1018.98 1018.98 1019.00 1019.04 1019.11 1019.21 1019.32 1019.43 1019.50
1018.51 1019.31 1020.02 1020.50 1020.69 1020.55 1020.11 1019.44 1018.65 1017.87 1017.21 1016.77 1016.58 1016.62 1016.86 1017.21 1017.58 1017.89 1018.11 1018.23 1018.27 1018.26 1018.26 1018.29 1018.38 1018.52 1018.68 1018.84 1018.96 1019.03 1019.05 1019.03 1018.99 1018.96 1018.94 1018.94 1018.97 1019.00 1019.03 1019.05 1019.06 1019.08 1019.11 1019.18 1019.27 1019.39 1019.52 1019.64 1019.72
1019.22 1019.92 1020.47 1020.78 1020.78 1020.48 1019.91 1019.17 1018.35 1017.59 1016.99 1016.62 1016.49 1016.57 1016.82 1017.15 1017.49 1017.78 1017.97 1018.08 1018.13 1018.15 1018.18 1018.25 1018.37 1018.52 1018.68 1018.82 1018.93 1018.99 1019.01 1019.00 1018.98 1018.97 1018.99 1019.03 1019.08 1019.14 1019.18 1019.21 1019.23 1019.25 1019.29 1019.35 1019.45 1019.57 1019.69 1019.80 1019.88
1019.72 1020.29 1020.69 1020.82 1020.68 1020.26 1019.62 1018.86 1018.08 1017.40 1016.89 1016.59 1016.52 1016.63 1016.87 1017.16 1017.44 1017.66 1017.82 1017.90 1017.95 1017.99 1018.06 1018.16 1018.30 1018.47 1018.63 1018.77 1018.86 1018.91 1018.93 1018.94 1018.95 1018.99 1019.05 1019.14 1019.24 1019.33 1019.39 1019.43 1019.45 1019.46 1019.49 1019.53 1019.60 1019.70 1019.79 1019.88 1019.94
1019.98 1020.42 1020.66 1020.66 1020.40 1019.92 1019.28 1018.56 1017.87 1017.29 1016.88 1016.67 1016.64 1016.76 1016.96 1017.19 1017.39 1017.54 1017.62 1017.67 1017.71 1017.77 1017.86 1017.99 1018.17 1018.35 1018.52 1018.65 1018.74 1018.79 1018.82 1018.86 1018.91 1018.99 1019.11 1019.26 1019.40 1019.52 1019.61 1019.66 1019.67 1019.66 1019.66 1019.66 1019.70 1019.75 1019.81 1019.86 1019.89
1020.03 1020.33 1020.44 1020.33 1020.02 1019.52 1018.92 1018.29 1017.71 1017.25 1016.95 1016.81 1016.81 1016.90 1017.04 1017.18 1017.28 1017.34 1017.35 1017.36 1017.38 1017.44 1017.56 1017.72 1017.93 1018.14 1018.32 1018.47 1018.57 1018.63 1018.69 1018.75 1018.84 1018.97 1019.14 1019.33 1019.51 1019.66 1019.77 1019.82 1019.82 1019.78 1019.74 1019.71 1019.70 1019.71 1019.73 1019.76 1019.77
1019.95 1020.13 1020.13 1019.95 1019.61 1019.14 1018.60 1018.07 1017.60 1017.25 1017.02 1016.92 1016.91 1016.96 1017.01 1017.05 1017.04 1016.99 1016.93 1016.89 1016.89 1016.96 1017.11 1017.31 1017.56 1017.81 1018.03 1018.21 1018.34 1018.43 1018.51 1018.60 1018.73 1018.90 1019.10 1019.31 1019.52 1019.69 1019.80 1019.85 1019.83 1019.79 1019.72 1019.66 1019.62 1019.60 1019.60 1019.60 1019.60
1019.86 1019.93 1019.85 1019.62 1019.27 1018.83 1018.36 1017.91 1017.52 1017.23 1017.03 1016.92 1016.87 1016.83 1016.78 1016.69 1016.57 1016.43 1016.30 1016.21 1016.20 1016.29 1016.47 1016.72 1017.02 1017.33 1017.61 1017.84 1018.02 1018.16 1018.28 1018.40 1018.56 1018.74 1018.96 1019.18 1019.39 1019.56 1019.68 1019.72 1019.71 1019.66 1019.59 1019.52 1019.48 1019.45 1019.44 1019.44 1019.44
1019.86 1019.84 1019.70 1019.43 1019.07 1018.65 1018.21 1017.80 1017.43 1017.14 1016.91 1016.74 1016.59 1016.44 1016.27 1016.06 1015.84 1015.61 1015.42 1015.31 1015.30 1015.40 1015.62 1015.93 1016.30 1016.68 1017.04 1017.35 1017.60 1017.80 1017.97 1018.13 1018.30 1018.49 1018.70 1018.92 1019.12 1019.29 1019.40 1019.45 1019.46 1019.43 1019.38 1019.34 1019.31 1019.30 1019.30 1019.31 1019.32
1020.03 1019.94 1019.74 1019.44 1019.06 1018.62 1018.17 1017.73 1017.32 1016.95 1016.63 1016.34 1016.06 1015.78 1015.48 1015.17 1014.85 1014.56 1014.34 1014.21 1014.20 1014.33 1014.60 1014.97 1015.41 1015.87 1016.32 1016.73 1017.07 1017.35 1017.58 1017.78 1017.96 1018.15 1018.34 1018.54 1018.72 1018.88 1018.99 1019.07 1019.11 1019.13 1019.13 1019.13 1019.15 1019.17 1019.21 1019.23 1019.25
1020.38 1020.23 1019.98 1019.64 1019.22 1018.74 1018.22 1017.69 1017.17 1016.67 1016.20 1015.76 1015.33 1014.91 1014.50 1014.10 1013.72 1013.40 1013.16 1013.03 1013.04 1013.19 1013.49 1013.91 1014.41 1014.96 1015.50 1016.00 1016.44 1016.81 1017.10 1017.34 1017.55 1017.73 1017.90 1018.07 1018.24 1018.39 1018.52 1018.63 1018.73 1018.80 1018.87 1018.94 1019.02 1019.09 1019.15 1019.19 1019.20
1020.83 1020.65 1020.37 1019.98 1019.51 1018.95 1018.34 1017.69 1017.01 1016.34 1015.70 1015.08 1014.50 1013.96 1013.47 1013.02 1012.62 1012.30 1012.06 1011.95 1011.96 1012.13 1012.44 1012.88 1013.43 1014.03 1014.65 1015.23 1015.76 1016.21 1016.57 1016.86 1017.08 1017.26 1017.42 1017.57 1017.72 1017.87 1018.03 1018.18 1018.34 1018.49 1018.64 1018.78 1018.90 1019.01 1019.10 1019.14 1019.15
1021.31 1021.11 1020.80 1020.38 1019.86 1019.23 1018.51 1017.71 1016.87 1016.03 1015.20 1014.43 1013.74 1013.12 1012.58 1012.13 1011.76 1011.46 1011.26 1011.16 1011.18 1011.33 1011.62 1012.04 1012.58 1013.20 1013.86 1014.50 1015.09 1015.61 1016.02 1016.35 1016.59 1016.77 1016.92 1017.06 1017.20 1017.36 1017.55 1017.75 1017.97 1018.19 1018.41 1018.61 1018.78 1018.92 1019.02 1019.06 1019.06
1021.70 1021.50 1021.19 1020.77 1020.21 1019.52 1018.71 1017.78 1016.80 1015.79 1014.83 1013.94 1013.17 1012.53 1012.01 1011.60 1011.30 1011.07 1010.91 1010.83 1010.83 1010.94 1011.18 1011.54 1012.02 1012.59 1013.23 1013.88 1014.50 1015.05 1015.50 1015.85 1016.11 1016.29 1016.43 1016.56 1016.70 1016.87 1017.08 1017.33 1017.61 1017.89 1018.16 1018.41 1018.62 1018.78 1018.88 1018.91 1018.89
1021.92 1021.75 1021.48 1021.08 1020.54 1019.82 1018.94 1017.92 1016.82 1015.71 1014.65 1013.70 1012.91 1012.30 1011.85 1011.54 1011.34 1011.21 1011.11 1011.05 1011.03 1011.07 1011.20 1011.45 1011.81 1012.29 1012.85 1013.45 1014.04 1014.59 1015.05 1015.40 1015.66 1015.83 1015.96 1016.08 1016.22 1016.40 1016.63 1016.91 1017.22 1017.55 1017.86 1018.14 1018.38 1018.54 1018.64 1018.68 1018.65
1021.97 1021.86 1021.66 1021.32 1020.81 1020.11 1019.21 1018.14 1016.98 1015.79 1014.69 1013.73 1012.97 1012.44 1012.11 1011.94 1011.87 1011.86 1011.84 1011.80 1011.74 1011.70 1011.70 1011.79 1011.99 1012.31 1012.74 1013.24 1013.76 1014.26 1014.68 1015.01 1015.24 1015.40 1015.51 1015.62 1015.74 1015.92 1016.16 1016.46 1016.79 1017.14 1017.48 1017.78 1018.03 1018.21 1018.31 1018.36 1018.34
1021.89 1021.86 1021.75 1021.51 1021.07 1020.41 1019.52 1018.44 1017.25 1016.04 1014.93 1014.00 1013.31 1012.88 1012.69 1012.68 1012.77 1012.88 1012.95 1012.94 1012.85 1012.71 1012.57 1012.48 1012.50 1012.64 1012.90 1013.25 1013.65 1014.05 1014.41 1014.68 1014.87 1014.99 1015.06 1015.14 1015.24 1015.40 1015.63 1015.93 1016.28 1016.64 1016.99 1017.31 1017.57 1017.76 1017.89 1017.97 1017.99
1021.78 1021.84 1021.84 1021.69 1021.34 1020.74 1019.87 1018.80 1017.60 1016.39 1015.29 1014.40 1013.78 1013.47 1013.42 1013.57 1013.81 1014.05 1014.21 1014.23 1014.12 1013.90 1013.64 1013.38 1013.21 1013.16 1013.23 1013.42 1013.68 1013.95 1014.20 1014.40 1014.52 1014.58 1014.60 1014.63 1014.70 1014.83 1015.04 1015.33 1015.67 1016.03 1016.39 1016.72 1017.00 1017.23 1017.40 1017.52 1017.61
1021.73 1021.89 1021.98 1021.94 1021.66 1021.10 1020.26 1019.19 1017.98 1016.76 1015.66 1014.80 1014.26 1014.03 1014.10 1014.39 1014.77 1015.13 1015.37 1015.45 1015.33 1015.06 1014.70 1014.31 1013.98 1013.75 1013.65 1013.67 1013.77 1013.91 1014.05 1014.14 1014.17 1014.15 1014.12 1014.09 1014.11 1014.20 1014.38 1014.65 1014.97 1015.33 1015.70 1016.05 1016.35 1016.62 1016.84 1017.03 1017.19
1021.84 1022.07 1022.24 1022.25 1022.02 1021.49 1020.65 1019.56 1018.33 1017.08 1015.97 1015.12 1014.61 1014.45 1014.60 1014.98 1015.47 1015.93 1016.26 1016.38 1016.29 1016.01 1015.59 1015.11 1014.66 1014.30 1014.05 1013.92 1013.88 1013.89 1013.90 1013.88 1013.82 1013.72 1013.61 1013.52 1013.48 1013.53 1013.67 1013.91 1014.22 1014.57 1014.94 1015.31 1015.65 1015.95 1016.23 1016.49 1016.72
1022.11 1022.39 1022.60 1022.64 1022.41 1021.86 1020.99 1019.86 1018.58 1017.30 1016.16 1015.30 1014.79 1014.65 1014.85 1015.29 1015.84 1016.38 1016.78 1016.97 1016.91 1016.64 1016.21 1015.70 1015.18 1014.73 1014.38 1014.13 1013.96 1013.85 1013.75 1013.62 1013.46 1013.28 1013.09 1012.94 1012.84 1012.84 1012.94 1013.15 1013.44 1013.78 1014.16 1014.53 1014.90 1015.25 1015.57 1015.88 1016.18
1022.52 1022.81 1023.02 1023.03 1022.76 1022.17 1021.25 1020.06 1018.74 1017.41 1016.24 1015.35 1014.82 1014.69 1014.90 1015.36 1015.95 1016.53 1016.98 1017.22 1017.22 1016.98 1016.58 1016.07 1015.53 1015.03 1014.61 1014.28 1014.02 1013.80 1013.59 1013.37 1013.12 1012.86 1012.60 1012.37 1012.23 1012.18 1012.23 1012.41 1012.67 1013.00 1013.37 1013.75 1014.13 1014.50 1014.86 1015.21 1015.55
1022.99 1023.25 1023.40 1023.35 1023.02 1022.35 1021.37 1020.14 1018.78 1017.43 1016.24 1015.34 1014.81 1014.67 1014.87 1015.33 1015.92 1016.52 1016.99 1017.27 1017.31 1017.13 1016.76 1016.28 1015.76 1015.25 1014.79 1014.39 1014.06 1013.76 1013.46 1013.15 1012.82 1012.47 1012.14 1011.86 1011.66 1011.57 1011.58 1011.72 1011.95 1012.26 1012.61 1012.98 1013.36 1013.74 1014.11 1014.47 1014.83
1023.40 1023.59 1023.67 1023.53 1023.10 1022.36 1021.34 1020.09 1018.73 1017.40 1016.25 1015.38 1014.88 1014.74 1014.93 1015.38 1015.95 1016.53 1017.01 1017.30 1017.37 1017.22 1016.90 1016.46 1015.95 1015.44 1014.96 1014.53 1014.13 1013.75 1013.38 1012.98 1012.58 1012.17 1011.78 1011.44 1011.19 1011.05 1011.02 1011.11 1011.30 1011.57 1011.89 1012.24 1012.60 1012.97 1013.33 1013.69 1014.04
1023.66 1023.76 1023.73 1023.48 1022.97 1022.18 1021.14 1019.92 1018.63 1017.40 1016.35 1015.58 1015.13 1015.03 1015.24 1015.66 1016.21 1016.75 1017.19 1017.47 1017.54 1017.41 1017.11 1016.69 1016.20 1015.70 1015.20 1014.73 1014.28 1013.84 1013.39 1012.92 1012.44 1011.96 1011.52 1011.13 1010.83 1010.63 1010.56 1010.60 1010.74 1010.96 1011.24 1011.55 1011.87 1012.21 1012.54 1012.88 1013.22
1023.72 1023.71 1023.55 1023.19 1022.61 1021.80 1020.80 1019.68 1018.53 1017.46 1016.58 1015.96 1015.64 1015.61 1015.85 1016.26 1016.76 1017.25 1017.63 1017.86 1017.90 1017.76 1017.46 1017.05 1016.57 1016.06 1015.54 1015.04 1014.53 1014.03 1013.50 1012.97 1012.42 1011.89 1011.38 1010.94 1010.59 1010.34 1010.21 1010.19 1010.27 1010.43 1010.65 1010.90 1011.18 1011.48 1011.79 1012.10 1012.42
Thickness
5696 5698 5697 5689 5674 5662 5666 5681 5694 5702 5709 5719 5723 5723 5722 5720 5720 5718 5735 5745 5746 5745 5744 5743 5742 5742 5742 5743 5742 5742 5742 5742 5741 5741 5741 5740 5739 5739 5738 5737 5736 5735 5734 5734 5733 5732 5731 5730 5729
5688 5689 5683 5672 5657 5650 5663 5680 5688 5698 5708 5715 5717 5717 5715 5716 5724 5726 5731 5737 5740 5741 5740 5739 5739 5738 5738 5738 5738 5738 5738 5738 5737 5737 5737 5736 5735 5735 5734 5733 5732 5731 5730 5729 5729 5728 5727 5727 5725
5681 5679 5667 5657 5650 5652 5666 5681 5687 5696 5704 5705 5704 5708 5708 5710 5716 5720 5727 5731 5733 5734 5734 5734 5734 5734 5733 5733 5733 5733 5733 5733 5733 5733 5732 5732 5731 5731 5729 5729 5728 5727 5726 5725 5724 5724 5723 5722 5721
5668 5661 5654 5645 5648 5659 5669 5677 5683 5686 5692 5696 5695 5695 5701 5709 5713 5717 5723 5725 5725 5726 5727 5728 5728 5728 5728 5727 5727 5728 5728 5728 5728 5728 5728 5727 5727 5726 5725 5724 5723 5722 5722 5721 5720 5719 5719 5718 5717
5655 5646 5638 5635 5644 5655 5663 5671 5675 5675 5679 5684 5684 5683 5690 5701 5708 5712 5714 5717 5717 5718 5719 5720 5721 5722 5722 5722 5722 5722 5722 5722 5723 5723 5723 5722 5722 5721 5720 5719 5718 5718 5717 5716 5715 5715 5714 5713 5712
5636 5632 5623 5626 5638 5649 5655 5661 5664 5664 5668 5673 5674 5675 5681 5692 5698 5701 5705 5706 5709 5710 5711 5712 5713 5714 5715 5715 5716 5716 5716 5717 5717 5717 5717 5717 5716 5715 5715 5714 5713 5712 5712 5711 5710 5709 5709 5708 5707
5623 5620 5617 5622 5627 5635 5645 5651 5651 5651 5656 5662 5668 5665 5673 5681 5687 5692 5694 5697 5698 5700 5702 5704 5705 5706 5707 5708 5709 5710 5710 5710 5711 5711 5710 5710 5710 5709 5709 5708 5707 5707 5706 5706 5705 5704 5703 5702 5701
5616 5610 5610 5611 5617 5625 5635 5641 5645 5644 5648 5657 5660 5656 5660 5670 5678 5681 5683 5685 5687 5690 5692 5694 5696 5698 5699 5701 5702 5703 5703 5704 5704 5704 5704 5704 5703 5703 5702 5702 5701 5701 5700 5700 5699 5698 5697 5697 5696
5608 5595 5597 5604 5608 5616 5624 5626 5632 5638 5639 5645 5649 5653 5660 5665 5668 5669 5671 5672 5674 5678 5681 5684 5687 5689 5691 5692 5694 5695 5696 5697 5697 5697 5697 5697 5696 5696 5695 5695 5694 5694 5693 5693 5692 5691 5691 5690 5689
5593 5586 5595 5603 5603 5606 5611 5613 5616 5621 5624 5630 5636 5644 5650 5654 5655 5656 5658 5659 5662 5666 5670 5674 5677 5679 5681 5683 5685 5686 5687 5689 5689 5690 5690 5690 5689 5689 5688 5688 5687 5686 5686 5685 5685 5684 5683 5683 5682
5585 5583 5589 5593 5596 5598 5599 5602 5607 5608 5610 5618 5624 5630 5635 5640 5642 5644 5646 5649 5652 5655 5659 5663 5667 5670 5672 5675 5676 5678 5679 5680 5682 5682 5682 5682 5682 5681 5681 5680 5679 5678 5678 5677 5677 5676 5676 5675 5675
5577 5579 5582 5583 5586 5587 5588 5592 5594 5597 5604 5611 5615 5620 5623 5627 5630 5633 5635 5638 5640 5643 5647 5652 5656 5659 5662 5665 5668 5670 5670 5672 5673 5673 5674 5674 5674 5673 5673 5672 5671 5671 5670 5669 5669 5668 5668 5668 5669
5569 5570 5573 5574 5575 5576 5579 5581 5583 5588 5595 5601 5605 5608 5611 5615 5619 5623 5626 5627 5629 5632 5637 5641 5645 5649 5652 5655 5658 5660 5662 5664 5665 5665 5665 5665 5666 5665 5665 5664 5663 5663 5663 5662 5661 5661 5661 5661 5662
5564 5563 5562 5564 5566 5568 5567 5571 5572 5580 5586 5590 5593 5596 5601 5604 5607 5610 5614 5616 5619 5622 5626 5631 5634 5639 5642 5645 5648 5650 5652 5653 5655 5656 5656 5656 5657 5657 5657 5656 5655 5655 5655 5655 5654 5654 5653 5654 5655
5557 5553 5554 5556 5556 5558 5558 5559 5563 5570 5573 5577 5581 5586 5590 5594 5597 5600 5605 5608 5610 5613 5616 5620 5625 5628 5632 5636 5638 5640 5642 5643 5644 5646 5646 5647 5648 5648 5648 5648 5647 5648 5648 5647 5647 5647 5646 5646 5647
5545 5539 5536 5546 5548 5548 5544 5545 5557 5560 5562 5564 5569 5574 5579 5583 5586 5591 5595 5598 5602 5604 5606 5610 5615 5618 5622 5625 5628 5630 5632 5633 5634 5636 5637 5638 5639 5639 5640 5640 5640 5640 5640 5640 5639 5639 5639 5639 5639
5525 5520 5524 5534 5540 5538 5534 5538 5548 5552 5553 5555 5558 5561 5567 5572 5576 5580 5584 5588 5591 5595 5597 5601 5604 5608 5611 5615 5618 5620 5622 5623 5624 5626 5628 5629 5630 5631 5631 5632 5633 5633 5633 5632 5632 5631 5631 5631 5632
5515 5514 5518 5522 5529 5529 5527 5531 5539 5541 5543 5545 5547 5551 5556 5561 5566 5570 5574 5577 5581 5584 5588 5591 5594 5597 5600 5604 5606 5608 5610 5612 5614 5616 5619 5620 5621 5622 5623 5624 5624 5625 5626 5625 5625 5624 5624 5624 5624
5517 5513 5511 5518 5523 5521 5522 5527 5534 5534 5533 5536 5539 5541 5545 5551 5557 5560 5563 5566 5570 5573 5577 5580 5584 5588 5590 5592 5595 5597 5599 5601 5604 5606 5609 5611 5612 5613 5614 5616 5616 5618 5618 5619 5619 5618 5616 5615 5616
5512 5508 5507 5513 5518 5518 5516 5521 5529 5529 5528 5530 5532 5534 5537 5541 5546 5550 5553 5556 5559 5562 5567 5571 5574 5577 5581 5584 5586 5588 5587 5588 5593 5596 5599 5601 5603 5605 5607 5609 5610 5610 5611 5611 5611 5611 5609 5608 5609
5509 5504 5504 5505 5509 5510 5509 5514 5522 5524 5524 5526 5527 5529 5531 5534 5537 5540 5542 5545 5548 5552 5556 5562 5564 5568 5571 5574 5576 5577 5578 5579 5581 5585 5589 5592 5595 5597 5600 5601 5602 5603 5603 5604 5605 5605 5604 5602 5601
5504 5507 5505 5504 5494 5491 5497 5493 5515 5515 5516 5520 5520 5522 5523 5524 5528 5531 5533 5536 5539 5542 5546 5551 5554 5558 5561 5564 5566 5568 5569 5570 5573 5576 5579 5583 5586 5589 5591 5592 5594 5595 5596 5597 5598 5599 5599 5598 5596
5500 5503 5500 5497 5489 5482 5488 5483 5500 5506 5507 5511 5513 5515 5515 5516 5519 5523 5525 5528 5530 5533 5536 5540 5544 5548 5550 5554 5556 5559 5560 5561 5563 5566 5569 5573 5577 5579 5581 5583 5585 5587 5589 5590 5591 5591 5592 5593 5593
5496 5493 5491 5482 5474 5473 5485 5479 5488 5491 5495 5501 5504 5506 5507 5509 5512 5515 5516 5518 5520 5523 5526 5529 5533 5537 5540 5543 5546 5549 5550 5552 5553 5556 5559 5562 5566 5569 5572 5574 5577 5579 5581 5583 5584 5585 5586 5587 5587
5485 5476 5470 5466 5456 5467 5483 5479 5482 5488 5489 5495 5498 5498 5499 5501 5502 5505 5506 5508 5511 5513 5516 5520 5523 5526 5530 5533 5536 5539 5541 5543 5545 5547 5550 5553 5557 5560 5563 5566 5568 5571 5573 5574 5576 5577 5578 5579 5579
5475 5469 5462 5459 5456 5466 5474 5473 5480 5484 5484 5488 5490 5490 5490 5491 5493 5496 5498 5500 5502 5505 5508 5511 5513 5516 5519 5522 5526 5529 5531 5533 5536 5539 5542 5544 5548 5552 5554 5557 5560 5562 5565 5566 5567 5568 5570 5571 5571
5468 5460 5461 5450 5445 5447 5460 5465 5475 5480 5478 5479 5480 5479 5478 5480 5483 5485 5488 5491 5493 5496 5499 5502 5504 5506 5508 5511 5515 5518 5520 5522 5526 5530 5532 5535 5538 5542 5545 5548 5551 5553 5556 5557 5558 5560 5561 5563 5563
5463 5456 5444 5440 5441 5447 5456 5456 5462 5464 5464 5466 5468 5469 5470 5472 5474 5477 5480 5483 5485 5487 5490 5493 5495 5497 5499 5501 5503 5507 5509 5512 5516 5521 5523 5526 5529 5533 5536 5539 5541 5544 5546 5548 5549 5550 5553 5554 5555
5453 5448 5440 5430 5430 5435 5441 5454 5460 5456 5456 5455 5457 5460 5461 5463 5465 5468 5471 5474 5475 5477 5480 5483 5485 5487 5489 5491 5494 5496 5499 5502 5505 5509 5514 5517 5520 5524 5527 5529 5532 5535 5537 5539 5541 5542 5544 5546 5546
5446 5441 5432 5428 5424 5421 5426 5444 5457 5451 5449 5448 5448 5451 5454 5456 5457 5460 5463 5464 5466 5469 5471 5473 5474 5476 5478 5481 5483 5486 5489 5492 5495 5499 5503 5507 5511 5514 5517 5519 5522 5525 5529 5531 5532 5534 5536 5538 5539